Home   Weather   Madaba   Past weeks

Flag for Jordan Past Weather in Madaba, Jordan — Yesterday and Last 2 Weeks

Now
82 °F

Clear.


Feels Like: 81 °F
Forecast: 59 / 82 °F
Wind: 12 mph from Northeast

Location: Queen Alia Airport

Current Time: Sep 29, 2016 at 4:39:30 PM

Latest Report: Sep 29, 2016 at 4:00 PM


Visibility: 4 mi

Pressure: 30.07 "Hg (27.50 "Hg at 788m altitude)

Humidity: 28%

Dew Point: 46 °F

Location of MadabaLocation

Past Weather in Madaba — Graph

°F

Madaba Temperature Yesterday

Maximum temperature yesterday: 79 °F (at 2:00 PM)
Minimum temperature yesterday: 52 °F (at 7:00 AM)
Average temperature yesterday: 68 °F

High & Low Weather Summary for the Past Weeks

 TemperatureHumidityPressure
High95 °F (Sep 21, 3:00 PM)94% (Sep 17, 7:00 AM)30.18 "Hg (Sep 17, 7:00 AM)
Low52 °F (Sep 28, 7:00 AM)14% (Sep 20, 3:00 PM)29.83 "Hg (Sep 25, 3:00 PM)
Average73 °F51%30.01 "Hg
* Reported Sep 14 3:00 PM — Sep 29 3:00 PM, Madaba, Weather by CustomWeather, © 2016

Note: Actual official high and low records may vary slightly from our data, if they occured in-between our weather recording intervals... More about our weather records

Advertising

Madaba Weather History for the Previous 24 Hours

Scroll right to see more
 ConditionsComfort  
Time TempWeatherWind HumidityBarometerVisibility
3:00 PM
Thu, Sep 29
82 °FClear.14 mph28%30.12 "Hg4 mi
2:00 PM79 °FHaze.16 mph32%30.15 "Hg3 mi
1:00 PM79 °FHaze.12 mph34%30.15 "Hg3 mi
12:00 PM79 °FHaze.12 mph37%30.15 "Hg3 mi
11:00 AM77 °FHaze.14 mph39%30.15 "Hg3 mi
10:00 AM73 °FHaze.9 mph44%30.18 "Hg3 mi
9:00 AM64 °FHaze.No wind78%30.18 "Hg2 mi
8:00 AM59 °FFog.No wind88%30.15 "Hg2 mi
7:00 AM54 °FFog.No wind94%30.15 "Hg1 mi
6:00 AM54 °FFog.No wind94%30.15 "Hg1 mi
4:00 AM54 °FClear.No wind88%30.15 "Hg4 mi
3:00 AM57 °FClear.No wind88%30.15 "Hg4 mi
2:00 AM59 °FClear.No wind88%30.15 "Hg4 mi
1:00 AM61 °FClear.No wind83%30.15 "Hg4 mi
12:00 AM63 °FClear.No wind77%30.15 "Hg4 mi
11:00 PM
Wed, Sep 28
66 °FClear.5 mph73%30.15 "Hg4 mi
10:00 PM66 °FClear.5 mph73%30.15 "Hg4 mi
9:00 PM70 °FClear.5 mph64%30.15 "Hg4 mi
8:00 PM72 °FClear.14 mph61%30.12 "Hg4 mi
6:00 PM77 °FClear.16 mph47%30.12 "Hg4 mi
5:00 PM79 °FClear.16 mph45%30.09 "Hg4 mi
4:00 PM79 °FClear.14 mph45%30.09 "Hg4 mi
Weather by CustomWeather, © 2016

See weather overviewHow to use our weather pages